GW1328 Weather Reports


time (UTC)temp
C
wind
direction
speed
KPH
gust
KPH
rain 1hr
cm
rain 24hr
cm
rain mn
cm
humidity
%
barometer
mb
20260507105033 7 215 4.8 9.7 0.00 1.75 0.36 91 1006.2
20260507104543 7 217 3.2 6.4 0.00 1.75 0.36 91 1006.6
20260507104033 7 298 1.6 6.4 0.00 1.75 0.36 91 1005.9
20260507103534 7 242 1.6 6.4 0.00 1.75 0.36 91 1006.1
20260507103047 7 242 3.2 9.7 0.00 1.75 0.36 91 1006.2
20260507102534 7 0 1.6 9.7 0.00 1.75 0.36 91 1006.2
20260507102035 7 242 4.8 9.7 0.00 1.75 0.36 91 1006.4
20260507101544 7 259 3.2 6.4 0.00 1.75 0.36 92 1006.3
20260507101036 7 236 3.2 6.4 0.00 1.75 0.36 92 1006.0
20260507100536 7 224 3.2 6.4 0.00 1.75 0.36 92 1005.8
20260507100048 7 225 1.6 4.8 0.00 1.75 0.36 92 1005.7
20260507095531 7 271 3.2 4.8 0.00 1.75 0.36 92 1005.8
20260507095034 7 271 0.0 4.8 0.00 1.75 0.36 92 1005.4
20260507094549 7 0 0.0 6.4 0.00 1.75 0.36 92 1005.5
20260507094033 7 271 1.6 6.4 0.00 1.75 0.36 92 1005.8
20260507093533 7 271 0.0 4.8 0.00 1.75 0.36 92 1005.6
20260507093050 7 271 1.6 9.7 0.00 1.75 0.36 92 1005.8
20260507092535 7 271 3.2 9.7 0.00 1.75 0.36 92 1005.8
20260507092035 7 271 3.2 9.7 0.00 1.75 0.36 92 1005.8
20260507091547 7 271 3.2 6.4 0.00 1.75 0.36 92 1005.9
20260507091033 7 271 1.6 6.4 0.00 1.75 0.36 92 1005.8
20260507090532 7 271 1.6 6.4 0.00 1.75 0.36 92 1005.9
20260507090046 7 271 3.2 6.4 0.00 1.75 0.36 92 1006.0
20260507085533 7 271 3.2 6.4 0.00 1.75 0.36 92 1005.8
20260507085033 7 271 3.2 9.7 0.00 1.75 0.36 92 1005.9
20260507084543 7 271 3.2 9.7 0.00 1.75 0.36 92 1006.1
20260507084034 7 277 4.8 9.7 0.00 1.75 0.36 93 1005.7
20260507083533 7 259 4.8 11.3 0.00 1.75 0.36 92 1005.8
20260507083042 7 284 3.2 11.3 0.00 1.75 0.36 93 1005.3
20260507082534 7 259 1.6 6.4 0.00 1.75 0.36 93 1005.5
20260507082033 8 259 3.2 8.0 0.00 1.75 0.36 93 1005.3
20260507081547 8 259 3.2 9.7 0.00 1.75 0.36 93 1005.3
20260507081035 8 278 3.2 9.7 0.00 1.75 0.36 93 1005.4
20260507080539 8 278 3.2 9.7 0.00 1.75 0.36 94 1005.3
20260507080051 8 302 3.2 6.4 0.00 1.75 0.36 94 1005.5
20260507075533 8 302 0.0 8.0 0.00 1.75 0.36 94 1005.2
20260507075033 8 301 1.6 8.0 0.00 1.75 0.36 94 1005.3
20260507074546 8 301 4.8 14.5 0.00 1.75 0.36 94 1005.5
20260507074031 8 271 6.4 14.5 0.00 1.75 0.36 94 1005.5
20260507073533 8 315 3.2 11.3 0.00 1.75 0.36 94 1005.4
20260507073104 8 281 3.2 11.3 0.00 1.75 0.36 94 1005.7
20260507072533 8 281 4.8 11.3 0.00 1.75 0.36 94 1005.5
20260507072035 8 327 1.6 4.8 0.00 1.75 0.36 94 1005.1
20260507071544 9 327 1.6 3.2 0.00 1.75 0.36 94 1005.2
20260507071034 9 327 0.0 4.8 0.00 1.75 0.36 94 1005.2
20260507070535 9 327 1.6 4.8 0.00 1.75 0.36 94 1005.2
20260507070045 9 327 1.6 4.8 0.00 1.75 0.36 94 1005.3
20260507065536 9 327 0.0 6.4 0.00 1.75 0.36 94 1005.0
20260507065035 9 327 3.2 6.4 0.00 1.75 0.36 94 1005.0
20260507064559 9 327 3.2 6.4 0.00 1.75 0.36 94 1004.9
20260507064035 9 0 0.0 4.8 0.00 1.75 0.36 94 1004.7
20260507063531 9 0 1.6 8.0 0.00 1.75 0.36 94 1004.8
20260507063057 9 327 1.6 8.0 0.00 1.75 0.36 94 1004.8
20260507062533 9 300 4.8 8.0 0.03 1.75 0.36 94 1004.7
20260507062034 9 300 3.2 8.0 0.03 1.75 0.36 94 1004.6
20260507061547 9 300 3.2 6.4 0.03 1.75 0.36 94 1004.7
20260507061034 10 300 1.6 6.4 0.03 1.75 0.36 94 1004.6
20260507060535 10 300 3.2 6.4 0.05 1.75 0.36 94 1004.5
20260507060044 10 355 0.0 4.8 0.08 1.75 0.36 94 1004.7
20260507055533 10 355 1.6 8.0 0.13 1.75 0.36 94 1004.5
20260507055034 10 0 1.6 12.9 0.15 1.75 0.36 94 1004.3
20260507054542 10 348 3.2 12.9 0.15 1.75 0.36 94 1004.3
20260507054035 10 333 4.8 11.3 0.20 1.75 0.36 94 1004.3
20260507053534 10 332 3.2 9.7 0.25 1.75 0.36 95 1004.5
20260507053042 10 0 1.6 9.7 0.28 1.75 0.36 95 1004.6
20260507052532 10 317 3.2 11.3 0.28 1.73 0.33 95 1004.9
20260507052034 10 313 3.2 12.9 0.28 1.73 0.33 95 1004.7
20260507051549 10 333 6.4 12.9 0.28 1.73 0.33 95 1004.8
20260507051037 10 264 6.4 14.5 0.30 1.73 0.33 95 1004.7
20260507050533 10 22 3.2 14.5 0.28 1.70 0.30 95 1004.7
20260507050057 10 292 8.0 14.5 0.25 1.68 0.28 95 1004.8
20260507045531 10 285 4.8 14.5 0.25 1.63 0.23 95 1004.8
20260507045033 10 225 6.4 14.5 0.23 1.60 0.20 95 1004.9
20260507044551 10 205 3.2 11.3 0.20 1.57 0.18 95 1004.7
20260507044031 10 179 4.8 16.1 0.18 1.55 0.15 95 1004.9
20260507043535 11 192 6.4 16.1 0.13 1.47 0.10 95 1005.1
20260507043050 11 231 4.8 14.5 0.13 1.47 0.08 95 1004.7
20260507042535 11 277 4.8 16.1 0.10 1.45 0.05 95 1004.4
20260507042033 11 278 8.0 16.1 0.13 1.45 0.05 95 1004.4
20260507041547 11 296 4.8 12.9 0.13 1.45 0.05 95 1004.3
20260507041033 11 300 6.4 16.1 0.10 1.42 0.03 95 1004.5
20260507040534 11 276 6.4 16.1 0.10 1.42 0.03 95 1004.6
20260507040044 11 261 3.2 20.9 0.10 1.40 0.00 95 1004.3
20260507035533 11 269 8.0 20.9 0.08 1.37 1.37 95 1004.5
20260507035033 11 242 6.4 12.9 0.10 1.37 1.37 95 1004.5
20260507034557 11 206 6.4 12.9 0.10 1.37 1.37 96 1004.6
20260507034034 11 300 6.4 12.9 0.13 1.37 1.37 96 1004.3
20260507033536 11 272 3.2 12.9 0.13 1.37 1.37 96 1004.2
20260507033101 11 198 6.4 12.9 0.10 1.32 1.32 96 1004.1
20260507032534 11 190 4.8 12.9 0.10 1.32 1.32 95 1004.2
20260507032033 11 209 6.4 12.9 0.08 1.32 1.32 95 1004.2
20260507031549 11 222 8.0 12.9 0.08 1.32 1.32 95 1004.0
20260507031034 11 190 6.4 11.3 0.08 1.32 1.32 95 1004.0
20260507030536 11 209 4.8 8.0 0.10 1.32 1.32 95 1003.8
20260507030045 11 221 3.2 8.0 0.08 1.30 1.30 95 1003.9
20260507025535 11 243 3.2 14.5 0.08 1.30 1.30 95 1004.0
20260507025034 11 211 4.8 14.5 0.05 1.27 1.27 95 1004.0
20260507024554 11 172 6.4 14.5 0.05 1.27 1.27 95 1004.0
20260507024034 11 187 4.8 19.3 0.05 1.24 1.24 95 1003.9
20260507023538 11 194 8.0 19.3 0.05 1.24 1.24 95 1003.8
20260507023044 11 177 11.3 19.3 0.08 1.24 1.24 95 1004.0
20260507022534 11 221 11.3 22.5 0.08 1.24 1.24 95 1004.0
20260507022035 11 218 9.7 22.5 0.08 1.24 1.24 95 1004.1
20260507021542 11 228 11.3 25.7 0.08 1.24 1.24 95 1004.0
20260507021039 12 175 11.3 25.7 0.08 1.24 1.24 95 1003.8
20260507020534 12 225 11.3 20.9 0.05 1.22 1.22 95 1003.8
20260507020044 12 228 12.9 22.5 0.05 1.22 1.22 95 1003.8
20260507015533 12 188 11.3 22.5 0.05 1.22 1.22 95 1003.7
20260507015037 12 207 11.3 25.7 0.05 1.22 1.22 95 1003.7
20260507014542 12 179 12.9 25.7 0.03 1.19 1.19 95 1004.0
20260507014031 12 169 11.3 30.6 0.03 1.19 1.19 95 1003.9
20260507013534 12 177 11.3 30.6 0.03 1.19 1.19 95 1004.0
20260507013042 12 202 8.0 24.1 0.00 1.17 1.17 95 1004.0
20260507012534 12 157 9.7 27.4 0.00 1.17 1.17 95 1004.0
20260507012031 12 179 8.0 32.2 0.00 1.17 1.17 95 1004.0
20260507011543 12 208 16.1 32.2 0.00 1.17 1.17 95 1004.0
20260507011034 12 194 12.9 30.6 0.00 1.17 1.17 95 1004.2
20260507010535 12 150 12.9 30.6 0.00 1.17 1.17 95 1004.2
20260507010048 12 167 9.7 27.4 0.00 1.17 1.17 95 1004.3
20260507005532 12 175 11.3 29.0 0.00 1.19 1.17 95 1004.4
20260507005032 12 161 12.9 32.2 0.00 1.19 1.17 95 1004.4
20260507004554 12 183 16.1 32.2 0.00 1.19 1.17 95 1004.5
20260507004035 12 176 9.7 25.7 0.00 1.19 1.17 95 1004.4
20260507003535 12 197 12.9 29.0 0.00 1.19 1.17 95 1004.7
20260507003053 12 172 16.1 29.0 0.00 1.19 1.17 95 1004.6
20260507002531 12 182 11.3 27.4 0.00 1.19 1.17 95 1004.5
20260507002033 12 119 12.9 27.4 0.00 1.19 1.17 95 1004.5
20260507001606 12 177 11.3 27.4 0.00 1.19 1.17 94 1004.5
20260507001038 12 184 14.5 24.1 0.00 1.19 1.17 94 1004.5
20260507000536 12 183 9.7 24.1 0.00 1.19 1.17 94 1004.6
20260507000047 12 188 11.3 24.1 0.00 1.19 1.17 94 1004.6
20260506235533 12 99 12.9 22.5 0.00 1.19 1.17 94 1004.6
20260506235036 12 192 11.3 22.5 0.00 1.19 1.17 94 1004.6
20260506234557 12 147 8.0 24.1 0.00 1.19 1.17 94 1004.6
20260506234033 12 194 8.0 27.4 0.00 1.19 1.17 94 1004.7
20260506233533 12 207 8.0 27.4 0.00 1.19 1.17 94 1004.7
20260506233053 12 170 12.9 27.4 0.00 1.19 1.17 94 1004.8
20260506232535 12 174 9.7 24.1 0.03 1.19 1.17 94 1004.8
20260506232034 12 185 8.0 24.1 0.03 1.19 1.17 94 1004.7
20260506231540 12 177 12.9 29.0 0.03 1.19 1.17 94 1004.8
20260506231032 12 199 11.3 33.8 0.05 1.19 1.17 94 1005.0
20260506230532 12 105 14.5 33.8 0.13 1.19 1.17 94 1004.8
20260506230054 12 148 12.9 40.2 0.18 1.19 1.17 94 1005.0
20260506225531 12 181 14.5 43.5 0.20 1.19 1.17 94 1005.0
20260506225033 12 200 17.7 43.5 0.25 1.19 1.17 94 1005.1
20260506224557 12 186 11.3 27.4 0.30 1.19 1.17 94 1005.1
20260506224034 12 202 11.3 20.9 0.33 1.19 1.17 94 1005.1
20260506223534 12 199 6.4 30.6 0.33 1.19 1.17 94 1005.3
20260506223046 12 203 16.1 43.5 0.33 1.19 1.17 93 1005.3
20260506222533 12 174 17.7 43.5 0.30 1.17 1.14 93 1005.4
20260506222034 12 188 12.9 32.2 0.33 1.17 1.14 93 1005.5
20260506221548 12 200 14.5 30.6 0.30 1.14 1.12 93 1005.4
20260506221032 12 185 14.5 33.8 0.30 1.12 1.09 93 1005.5
20260506220534 12 148 20.9 33.8 0.25 1.07 1.04 93 1005.4
20260506220054 12 173 16.1 35.4 0.23 1.02 0.99 93 1005.5
20260506215534 12 190 16.1 35.4 0.25 0.99 0.97 93 1005.5
20260506215031 12 165 14.5 32.2 0.23 0.91 0.89 93 1005.6
20260506214545 12 186 9.7 29.0 0.23 0.89 0.86 93 1005.5
20260506214033 12 194 8.0 32.2 0.23 0.86 0.84 93 1005.5
20260506213532 12 169 14.5 32.2 0.25 0.86 0.84 93 1005.6
20260506213044 12 139 11.3 30.6 0.28 0.86 0.84 93 1005.7
20260506212534 12 148 16.1 33.8 0.30 0.86 0.84 93 1005.6
20260506212033 12 162 17.7 33.8 0.30 0.84 0.81 93 1005.6
20260506211551 12 162 17.7 32.2 0.30 0.84 0.81 93 1005.5
20260506211032 12 184 12.9 32.2 0.30 0.81 0.79 93 1005.5
20260506210533 12 165 11.3 33.8 0.33 0.81 0.79 93 1005.5
20260506210051 12 150 16.1 33.8 0.33 0.79 0.76 93 1005.5
20260506205538 12 178 8.0 25.7 0.28 0.74 0.71 93 1005.7
20260506205037 12 186 9.7 27.4 0.25 0.69 0.66 93 1005.7
20260506204542 12 161 12.9 25.7 0.25 0.66 0.64 93 1005.6
20260506204036 12 189 9.7 25.7 0.23 0.64 0.61 93 1005.7
20260506203534 12 194 12.9 25.7 0.23 0.58 0.56 93 1005.6
20260506203044 12 176 12.9 29.0 0.25 0.58 0.56 92 1005.6
20260506202533 12 186 14.5 29.0 0.25 0.56 0.53 92 1005.8
20260506202033 12 178 8.0 19.3 0.28 0.53 0.51 93 1005.8
20260506201546 12 207 6.4 35.4 0.33 0.53 0.51 92 1005.8
20260506201037 12 143 11.3 35.4 0.33 0.51 0.48 92 1005.8
20260506200537 12 165 14.5 27.4 0.33 0.48 0.46 92 1005.7
20260506200048 12 192 11.3 29.0 0.33 0.46 0.43 92 1005.8
20260506195536 12 200 16.1 29.0 0.36 0.46 0.43 92 1005.8
20260506195036 12 161 16.1 33.8 0.36 0.43 0.41 92 1005.8
20260506194552 12 207 17.7 35.4 0.36 0.41 0.38 92 1006.0
20260506194037 12 194 16.1 35.4 0.38 0.41 0.38 92 1006.2
20260506193537 12 191 12.9 25.7 0.33 0.36 0.33 91 1006.2
20260506193051 12 172 11.3 22.5 0.30 0.33 0.30 91 1006.4
20260506192536 12 173 9.7 16.1 0.25 0.28 0.25 91 1006.6
20260506192037 12 155 6.4 16.1 0.20 0.23 0.20 90 1006.6
20260506191546 12 194 9.7 20.9 0.18 0.20 0.18 90 1006.9
20260506191033 13 212 9.7 22.5 0.15 0.18 0.15 90 1006.7
20260506190533 13 156 8.0 22.5 0.13 0.15 0.13 89 1006.7
20260506190044 13 164 9.7 19.3 0.10 0.13 0.10 88 1006.6
20260506185536 13 134 11.3 19.3 0.08 0.10 0.08 87 1006.4
20260506185036 13 163 9.7 19.3 0.05 0.08 0.05 86 1006.2
20260506184553 13 168 6.4 20.9 0.03 0.05 0.03 85 1006.4
20260506184037 13 172 12.9 20.9 0.00 0.03 0.00 84 1006.5
20260506183541 14 163 11.3 20.9 0.00 0.03 0.00 83 1006.6
20260506183056 14 227 9.7 20.9 0.00 0.03 0.00 81 1006.5
20260506182537 15 133 8.0 20.9 0.00 0.03 0.00 81 1006.5
20260506182036 15 200 9.7 24.1 0.00 0.03 0.00 80 1006.5
20260506181600 15 185 8.0 24.1 0.00 0.03 0.00 80 1006.4
20260506181036 15 153 9.7 19.3 0.00 0.03 0.00 79 1006.4
20260506180537 15 209 8.0 19.3 0.00 0.03 0.00 80 1006.4
20260506180048 15 170 8.0 19.3 0.00 0.03 0.00 79 1006.5
20260506175535 15 155 11.3 25.7 0.00 0.03 0.00 79 1006.5
20260506175036 15 162 8.0 25.7 0.00 0.03 0.00 80 1006.6
20260506174548 15 174 11.3 29.0 0.00 0.03 0.00 79 1006.7
20260506174039 15 150 9.7 29.0 0.00 0.03 0.00 79 1006.9
20260506173537 15 211 12.9 27.4 0.00 0.03 0.00 79 1006.8
20260506173116 16 166 12.9 27.4 0.00 0.03 0.00 79 1006.9
20260506172536 16 107 9.7 19.3 0.00 0.03 0.00 78 1007.1
20260506172036 16 163 8.0 14.5 0.00 0.03 0.00 78 1007.2
20260506171555 16 199 6.4 24.1 0.00 0.03 0.00 79 1007.3
20260506171036 16 186 8.0 27.4 0.00 0.03 0.00 79 1007.4
20260506170537 16 144 8.0 27.4 0.00 0.03 0.00 79 1007.6
20260506165537 16 180 8.0 24.1 0.00 0.03 0.00 79 1007.7
20260506165037 16 115 11.3 19.3 0.00 0.03 0.00 80 1007.8
20260506164550 15 180 6.4 16.1 0.00 0.03 0.00 80 1007.7
20260506164036 15 110 8.0 17.7 0.00 0.03 0.00 80 1007.8
20260506163535 15 132 9.7 19.3 0.00 0.03 0.00 80 1007.9
20260506163045 15 157 9.7 19.3 0.00 0.03 0.00 80 1008.0
20260506162537 15 169 11.3 20.9 0.00 0.03 0.00 80 1008.1
20260506162037 15 182 9.7 20.9 0.00 0.03 0.00 80 1008.1
20260506161551 15 151 9.7 20.9 0.00 0.03 0.00 80 1008.3
20260506161036 15 159 8.0 24.1 0.00 0.03 0.00 80 1008.2
20260506160536 15 189 11.3 24.1 0.00 0.03 0.00 80 1008.3
20260506160058 15 191 9.7 22.5 0.00 0.03 0.00 80 1008.3
20260506155534 15 215 9.7 22.5 0.00 0.03 0.00 80 1008.5
20260506155036 15 175 9.7 19.3 0.00 0.03 0.00 80 1008.6
20260506154554 15 152 6.4 19.3 0.00 0.03 0.00 80 1008.7
20260506154034 15 174 9.7 25.7 0.00 0.03 0.00 80 1008.5
20260506153534 15 132 14.5 25.7 0.00 0.03 0.00 79 1008.6
20260506153044 15 177 11.3 25.7 0.00 0.03 0.00 79 1008.6
20260506152537 15 131 11.3 20.9 0.00 0.03 0.00 79 1008.3
20260506152039 15 181 8.0 20.9 0.00 0.03 0.00 81 1008.5
20260506151546 15 154 6.4 19.3 0.00 0.03 0.00 80 1008.5
20260506151034 15 169 11.3 22.5 0.00 0.03 0.00 80 1008.4
20260506150534 15 155 9.7 22.5 0.00 0.03 0.00 79 1008.3
20260506150049 15 168 11.3 22.5 0.00 0.03 0.00 80 1008.3
20260506145538 15 200 14.5 22.5 0.00 0.03 0.00 79 1008.2
20260506145035 15 205 8.0 17.7 0.00 0.03 0.00 80 1008.1
20260506144551 15 119 9.7 22.5 0.00 0.03 0.00 79 1007.9
20260506144034 15 198 9.7 22.5 0.00 0.03 0.00 79 1008.1
20260506143534 15 130 9.7 22.5 0.00 0.03 0.00 79 1008.2
20260506143046 15 151 11.3 20.9 0.00 0.03 0.00 79 1008.4
20260506142535 15 156 6.4 17.7 0.00 0.03 0.00 79 1008.5
20260506142038 15 192 6.4 17.7 0.00 0.03 0.00 80 1008.6
20260506141545 15 185 8.0 17.7 0.00 0.03 0.00 79 1008.8
20260506141035 15 198 3.2 14.5 0.00 0.03 0.00 80 1008.8
20260506140535 15 209 6.4 16.1 0.00 0.03 0.00 80 1009.1
20260506140046 15 183 8.0 17.7 0.00 0.03 0.00 80 1008.9
20260506135535 15 178 8.0 17.7 0.00 0.03 0.00 80 1008.9
20260506135034 15 207 8.0 16.1 0.00 0.03 0.00 80 1009.0
20260506134548 15 159 4.8 11.3 0.00 0.03 0.00 80 1009.0
20260506134034 14 113 6.4 11.3 0.00 0.03 0.00 80 1008.9
20260506133534 14 204 8.0 11.3 0.00 0.03 0.00 79 1009.0
20260506133041 14 202 4.8 8.0 0.00 0.03 0.00 80 1009.0
20260506132535 14 168 3.2 11.3 0.00 0.03 0.00 79 1009.0
20260506132037 14 171 4.8 11.3 0.00 0.03 0.00 79 1008.9
20260506131558 14 182 4.8 12.9 0.00 0.03 0.00 79 1008.8
20260506131034 14 169 6.4 12.9 0.00 0.03 0.00 79 1008.9
20260506130535 14 188 1.6 11.3 0.00 0.03 0.00 80 1008.8
20260506130053 13 203 1.6 11.3 0.00 0.03 0.00 81 1008.7
20260506125533 13 175 3.2 11.3 0.00 0.03 0.00 80 1008.8
20260506125031 13 192 0.0 4.8 0.00 0.03 0.00 81 1009.0
20260506124546 13 175 1.6 6.4 0.00 0.03 0.00 82 1009.0
20260506124035 13 147 0.0 8.0 0.00 0.03 0.00 82 1008.9
20260506123536 13 97 0.0 11.3 0.00 0.03 0.00 82 1008.9
20260506123044 13 135 0.0 11.3 0.00 0.03 0.00 83 1009.1
20260506122535 12 99 3.2 11.3 0.00 0.03 0.00 82 1009.1
20260506122032 12 152 4.8 11.3 0.00 0.03 0.00 82 1009.1
20260506121541 12 161 0.0 12.9 0.00 0.03 0.00 82 1009.5
20260506121034 12 0 0.0 12.9 0.00 0.03 0.00 82 1009.4
20260506120536 12 136 6.4 12.9 0.00 0.03 0.00 83 1009.4
20260506120053 12 132 1.6 12.9 0.00 0.03 0.00 83 1009.3
20260506115534 12 163 4.8 12.9 0.00 0.03 0.00 83 1009.4
20260506115032 12 102 4.8 12.9 0.00 0.03 0.00 83 1009.5
20260506114546 12 123 4.8 12.9 0.00 0.03 0.00 83 1009.7
20260506114035 12 177 4.8 12.9 0.00 0.03 0.00 83 1009.6
20260506113534 12 155 4.8 12.9 0.00 0.03 0.00 83 1009.7
20260506113051 12 166 3.2 9.7 0.00 0.03 0.00 84 1009.7
20260506112535 12 0 1.6 11.3 0.00 0.03 0.00 84 1009.9
20260506112035 11 148 3.2 11.3 0.00 0.03 0.00 84 1009.9
20260506111545 11 136 4.8 11.3 0.00 0.03 0.00 84 1009.7
20260506111036 11 189 4.8 11.3 0.00 0.03 0.00 84 1009.7
20260506110535 11 193 1.6 9.7 0.00 0.03 0.00 84 1009.7
20260506110103 11 109 3.2 9.7 0.00 0.03 0.00 84 1009.5
20260506105531 11 91 0.0 9.7 0.00 0.03 0.00 84 1009.5